Oklahoma City Wiley Post, OK

11:23 PM CDT on August 16, 2017 (GMT -0500)
Wiley Post

Weather History for KPWA - July, 2013

Change the Weather History Date:

Friday, July 26, 2013

  Actual Average Record
Temperature  
Mean Temperature 76 °F -  
Max Temperature 82 °F 91 °F 106 °F (1998)
Min Temperature 69 °F 72 °F 59 °F (2004)
Cooling Degree Days 10    
Growing Degree Days 26 (Base 50)    
Moisture  
Dew Point 68 °F    
Average Humidity 82    
Maximum Humidity 94    
Minimum Humidity 58    
Precipitation  
Precipitation 2.50 in - - ()
Sea Level Pressure  
Sea Level Pressure 29.97 in    
Wind  
Wind Speed 12 mph (East)    
Max Wind Speed 21 mph    
Max Gust Speed 30 mph    
Visibility 5 miles    
Events Fog , Rain , Thunderstorm    
Averages and records for this station are not official NWS values.
T = Trace of Precipitation, MM = Missing Value Source: NWS Daily Summary

Daily Weather History Graph

Daily Weather History Graph

Search for Another Location

Airport or City:

Trip Planner

Search our weather history database for the weather conditions in past years. The results will help you decide how hot, cold, wet, or windy it might be!

Date:

Astronomy

Jul. 26, 2013 Rise Set
Actual Time 6:34 AM CDT 8:39 PM CDT
Civil Twilight 6:06 AM CDT 9:07 PM CDT
Nautical Twilight 5:31 AM CDT 9:42 PM CDT
Astronomical Twilight 4:53 AM CDT 10:19 PM CDT
Moon 11:07 PM CDT (7/26) 11:00 AM CDT (7/26)
Length of Visible Light 15h 01m
Length of Day
14h 04m
Waning Gibbous, 80% of the Moon is Illuminated
Jul 26
Waning Gibbous
Jul 29
Last Quarter
Aug 6
New
Aug 14
First Quarter
Aug 20
Full

Hourly Weather History & Observations

Time (CDT) Temp. Heat Index Dew Point Humidity Pressure Visibility Wind Dir Wind Speed Gust Speed Precip Events Conditions
12:53 AM 75.0 °F - 71.1 °F 87% 29.97 in 6.0 mi WSW 8.1 mph - 0.01 in Rain Light Rain
1:11 AM 75.2 °F - 71.6 °F 89% 30.01 in 4.0 mi SSW 8.1 mph - 0.05 in Rain , Thunderstorm Rain
1:34 AM 75.2 °F - 69.8 °F 83% 29.99 in 7.0 mi SSE 11.5 mph - 0.06 in Rain Light Rain
1:53 AM 75.9 °F - 69.1 °F 79% 29.94 in 6.0 mi SSE 16.1 mph - 0.08 in Rain Light Rain
2:53 AM 75.0 °F - 70.0 °F 84% 29.92 in 5.0 mi SE 12.7 mph - 0.03 in Rain Light Rain
3:19 AM 73.4 °F - 68.0 °F 83% 29.96 in 8.0 mi South 20.7 mph 28.8 mph 0.01 in Thunderstorm Overcast
3:53 AM 73.9 °F - 69.1 °F 85% 29.91 in 2.0 mi SSE 16.1 mph 29.9 mph 0.13 in Rain , Thunderstorm Heavy Rain
4:06 AM 73.4 °F - 69.8 °F 88% 29.96 in 4.0 mi SE 11.5 mph 20.7 mph 0.03 in Rain , Thunderstorm Rain
4:14 AM 73.4 °F - 69.8 °F 88% 29.95 in 1.8 mi SE 12.7 mph - 0.08 in Rain , Thunderstorm Heavy Rain
4:22 AM 73.4 °F - 69.8 °F 88% 29.94 in 3.0 mi SE 11.5 mph - 0.09 in Rain , Thunderstorm Light Thunderstorms and Rain
4:45 AM 73.4 °F - 69.8 °F 88% 29.98 in 1.8 mi NNE 9.2 mph - 0.23 in Rain , Thunderstorm Heavy Thunderstorms and Rain
4:53 AM 73.0 °F - 70.0 °F 90% 29.95 in 0.8 mi NE 11.5 mph - 0.56 in Rain , Thunderstorm Heavy Thunderstorms and Rain
5:04 AM 71.6 °F - 69.8 °F 94% 29.99 in 0.5 mi NNE 16.1 mph 21.9 mph 0.56 in Fog , Rain , Thunderstorm Heavy Thunderstorms and Rain
5:12 AM 71.6 °F - 68.0 °F 88% 30.00 in 0.5 mi South 13.8 mph 24.2 mph 0.88 in Fog , Rain , Thunderstorm Heavy Thunderstorms and Rain
5:20 AM 69.8 °F - 66.2 °F 88% 29.99 in 0.8 mi SSE 8.1 mph 19.6 mph 1.03 in Rain , Thunderstorm Heavy Rain
5:23 AM 69.8 °F - 66.2 °F 88% 30.00 in 1.0 mi South 11.5 mph - 1.06 in Rain , Thunderstorm Heavy Thunderstorms and Rain
5:33 AM 69.8 °F - 66.2 °F 88% 29.99 in 1.8 mi SSE 11.5 mph - 1.15 in Rain , Thunderstorm Heavy Thunderstorms and Rain
5:41 AM 69.8 °F - 66.2 °F 88% 29.99 in 3.0 mi South 10.4 mph - 1.17 in Rain , Thunderstorm Thunderstorms and Rain
5:53 AM 70.0 °F - 66.9 °F 90% 29.93 in 4.0 mi South 11.5 mph - 1.21 in Rain Rain
6:09 AM 69.8 °F - 66.2 °F 88% 29.97 in 10.0 mi South 8.1 mph - 0.01 in Rain Light Rain
6:29 AM 69.8 °F - 66.2 °F 88% 29.97 in 1.8 mi South 11.5 mph - 0.14 in Rain Heavy Rain
6:41 AM 69.8 °F - 66.2 °F 88% 29.97 in 3.0 mi SSW 13.8 mph - 0.20 in Rain Light Rain
6:53 AM 70.0 °F - 66.9 °F 90% 29.94 in 6.0 mi SSW 15.0 mph - 0.20 in Rain Light Rain
7:53 AM 71.1 °F - 68.0 °F 90% 29.94 in 3.0 mi South 6.9 mph - 0.02 in Rain Light Rain
8:00 AM 71.6 °F - 68.0 °F 88% 29.98 in 1.8 mi South 11.5 mph - 0.04 in Rain Heavy Rain
8:18 AM 71.6 °F - 68.0 °F 88% 29.98 in 2.5 mi South 11.5 mph - 0.07 in Rain Light Rain
8:30 AM 69.8 °F - 66.2 °F 88% 29.98 in 1.0 mi SSE 16.1 mph - 0.13 in Rain Heavy Rain
8:53 AM 71.1 °F - 66.9 °F 87% 29.94 in 2.5 mi SSE 11.5 mph - 0.19 in Rain Light Rain
8:57 AM 71.6 °F - 66.2 °F 83% 29.98 in 3.0 mi SSE 11.5 mph - 0.01 in Rain Light Rain
9:53 AM 72.0 °F - 68.0 °F 87% 29.94 in 6.0 mi SE 9.2 mph - 0.01 in   Overcast
10:53 AM 73.0 °F - 69.1 °F 87% 29.94 in 5.0 mi SE 6.9 mph - 0.00 in   Overcast
11:26 AM 73.4 °F - 69.8 °F 88% 29.99 in 6.0 mi Calm Calm - N/A   Overcast
11:41 AM 73.4 °F - 69.8 °F 88% 29.99 in 5.0 mi North 5.8 mph - 0.00 in Rain Light Rain
11:46 AM 73.4 °F - 69.8 °F 88% 29.99 in 1.8 mi North 9.2 mph - 0.01 in Rain Light Rain
11:53 AM 72.0 °F - 69.1 °F 91% 29.96 in 0.8 mi North 12.7 mph - 0.03 in Rain Rain
12:09 PM 71.6 °F - 68.0 °F 88% 30.00 in 1.0 mi North 15.0 mph 19.6 mph 0.02 in Rain Rain
12:21 PM 71.6 °F - 69.8 °F 94% 30.00 in 1.5 mi North 15.0 mph - 0.03 in Rain Rain
12:28 PM 71.6 °F - 69.8 °F 94% 30.00 in 2.0 mi North 15.0 mph - 0.03 in Rain Light Rain
12:34 PM 73.4 °F - 69.8 °F 88% 30.00 in 3.0 mi North 12.7 mph - 0.03 in Rain Light Rain
12:53 PM 73.0 °F - 69.1 °F 87% 29.96 in 10.0 mi North 13.8 mph - 0.03 in   Overcast
1:50 PM 78.8 °F - 69.8 °F 74% 29.99 in 10.0 mi North 17.3 mph 21.9 mph N/A   Mostly Cloudy
1:53 PM 78.1 °F - 69.1 °F 74% 29.95 in 10.0 mi North 17.3 mph 21.9 mph N/A   Mostly Cloudy
2:29 PM 78.8 °F - 69.8 °F 74% 30.00 in 10.0 mi North 17.3 mph 27.6 mph N/A   Mostly Cloudy
2:53 PM 80.1 °F 82.9 °F 69.1 °F 69% 29.95 in 10.0 mi North 18.4 mph 24.2 mph N/A   Mostly Cloudy
3:38 PM 80.6 °F 83.2 °F 68.0 °F 65% 29.99 in 10.0 mi North 17.3 mph - N/A   Scattered Clouds
3:53 PM 82.0 °F 84.9 °F 68.0 °F 62% 29.95 in 10.0 mi NNE 18.4 mph 25.3 mph N/A   Mostly Cloudy
4:16 PM 82.4 °F 85.4 °F 68.0 °F 62% 30.00 in 10.0 mi NNE 18.4 mph 24.2 mph N/A   Scattered Clouds
4:53 PM 82.0 °F 84.9 °F 68.0 °F 62% 29.95 in 10.0 mi NNE 15.0 mph 24.2 mph N/A   Partly Cloudy
5:53 PM 82.0 °F 84.9 °F 68.0 °F 62% 29.95 in 9.0 mi NNE 15.0 mph 24.2 mph N/A   Mostly Cloudy
6:53 PM 82.0 °F 84.5 °F 66.9 °F 60% 29.95 in 10.0 mi North 13.8 mph 20.7 mph N/A   Partly Cloudy
7:53 PM 81.0 °F 82.7 °F 64.9 °F 58% 29.96 in 10.0 mi NNE 16.1 mph - N/A   Clear
8:53 PM 78.1 °F - 66.0 °F 66% 29.99 in 10.0 mi NE 13.8 mph - N/A   Partly Cloudy
9:53 PM 75.9 °F - 66.9 °F 74% 30.01 in 10.0 mi NE 6.9 mph - N/A   Clear
10:53 PM 73.9 °F - 66.9 °F 79% 30.03 in 10.0 mi ENE 5.8 mph - N/A   Clear
11:53 PM 73.0 °F - 66.9 °F 81% 30.04 in 10.0 mi NE 4.6 mph - N/A   Clear